Location: ???????
(55.4362°N, 38.1183°E)
Time: 13:07:48
(UTC+00:00)

M-CUBED/EXP-1 PRIME - Pass Details

Date: 12 December 2021
Orbit: 426 x 650 km, 101.7° (Epoch: 28 January)

Event Time Altitude Azimuth Distance (km) Brightness Sun altitude
Rises 14:50:02 0° 153° (SSE) 2,880 ? -14.6°
Reaches altitude 10° 14:52:10 10° 152° (SSE) 2,003 ? -14.9°
Maximum altitude 14:56:33 81° 66° (ENE) 660 ? -15.5°
Drops below altitude 10° 15:01:05 10° 340° (NNW) 2,074 ? -16.1°
Sets 15:03:20 0° 339° (NNW) 2,991 ? -16.4°
